Temperature
17 16 16 16 15 15 15 14 14 14 13 13 13 13 13 13 13 13 13 13 13 13 13 13 13 13 13 13 13 13 14 14 14 14 14 14 14 14 14 14 14 15 15
17 16 16 16 15 15 14 14 14 14 14 13 13 13 13 13 13 13 13 13 13 13 13 13 13 13 13 13 13 13 13 13 14 14 14 13 13 13 14 14 14 14 14
16 16 16 15 15 15 14 14 14 14 14 14 13 13 13 13 13 13 13 13 13 13 13 13 13 13 13 13 13 13 13 13 13 13 13 13 13 13 13 13 13 14 14
16 16 15 15 14 14 14 14 14 14 14 14 13 13 13 13 13 13 13 13 13 13 13 13 13 13 13 13 13 13 13 13 13 13 13 13 13 13 13 13 13 13 13
15 15 15 14 14 14 14 14 14 14 14 13 13 13 13 13 13 13 13 13 13 13 13 13 13 13 13 13 13 13 13 13 13 13 13 13 13 13 13 13 13 13 13
14 14 14 14 14 14 14 14 14 14 14 13 13 13 13 13 13 13 13 13 13 13 13 13 13 13 13 13 13 13 13 13 13 13 13 13 13 13 13 13 13 13 13
13 13 14 14 14 14 13 13 13 14 13 13 13 13 13 13 13 14 13 13 13 13 13 13 13 13 13 13 13 13 13 13 13 13 13 13 13 13 13 12 12 12 12
13 13 13 13 13 13 13 13 13 13 13 13 13 13 13 13 14 14 13 13 13 13 13 13 13 13 12 12 12 12 12 13 13 13 13 13 12 12 12 12 12 12 12
12 12 12 12 13 13 13 13 13 13 13 13 13 13 13 13 14 14 13 13 12 13 13 13 13 12 13 13 12 12 12 12 13 13 13 13 12 12 12 12 12 12 12
12 12 12 12 12 12 12 13 13 13 13 13 13 13 13 13 13 13 13 13 13 13 13 13 13 12 12 13 12 12 12 12 12 12 12 12 12 12 12 12 12 12 12
11 11 11 11 11 12 12 12 12 12 12 12 12 13 13 13 13 13 13 13 13 13 13 12 12 13 12 12 12 12 12 12 12 12 12 12 12 11 12 12 12 11 11
11 11 11 11 11 11 11 12 12 12 12 12 12 12 12 13 13 13 13 13 13 13 12 13 12 12 12 12 12 12 12 12 11 11 11 11 11 11 11 11 11 11 11
10 10 10 10 10 10 10 11 11 11 11 11 11 12 12 12 12 13 13 13 13 13 12 12 12 12 12 12 12 12 11 11 11 11 11 11 11 11 11 11 10 10 10
10 10 10 10 10 10 10 10 10 10 10 11 11 11 11 12 12 12 13 13 13 12 12 12 12 12 12 11 11 11 11 11 11 11 11 11 10 10 10 10 10 10 10
9 9 9 9 9 9 9 9 9 10 10 10 10 10 11 11 12 12 12 12 12 12 12 12 11 11 11 11 11 11 10 11 10 10 10 10 10 10 10 10 10 9 9
9 9 9 9 9 9 9 9 9 9 9 10 10 10 10 11 11 11 11 12 12 12 12 11 11 11 11 11 10 10 10 10 10 10 10 10 9 9 9 9 9 9 9
8 8 8 8 8 8 8 8 8 9 9 9 10 10 10 10 10 11 11 11 11 11 11 10 11 11 11 11 10 10 10 10 10 10 9 9 9 9 9 9 9 8 8
8 8 7 7 7 7 8 8 8 8 8 9 9 9 10 10 10 10 10 10 10 10 10 10 10 10 10 10 10 10 10 10 10 9 9 9 9 9 8 8 8 8 8
7 7 7 7 7 7 7 7 7 7 8 8 8 9 9 9 9 9 9 9 9 10 10 10 10 10 10 10 10 10 10 10 9 9 9 9 8 8 8 8 8 8 7
6 6 6 6 6 7 7 7 7 7 7 7 8 8 8 8 8 8 9 9 9 9 9 10 10 10 10 10 10 10 9 9 9 9 8 8 8 8 8 7 7 7 7
6 6 6 6 6 6 6 6 6 6 7 7 7 7 7 7 8 8 8 8 9 9 9 9 9 10 10 10 10 10 9 9 9 8 8 8 8 8 7 7 7 7 6
6 6 6 6 6 6 6 6 6 6 6 6 7 7 7 7 7 7 7 8 8 9 9 9 9 9 10 10 10 9 9 9 8 8 8 8 8 8 7 7 6 6 6
5 5 5 5 6 6 6 6 6 6 6 6 6 6 6 7 7 7 7 7 8 8 8 8 9 9 9 9 9 9 9 9 9 8 8 8 8 7 7 7 6 6 5
5 5 5 5 5 5 5 5 5 5 6 6 6 6 6 6 6 6 7 7 7 7 8 8 8 9 9 9 9 9 9 9 9 8 8 8 8 7 7 6 6 5 5
4 5 5 5 5 5 5 5 5 5 5 5 5 5 5 6 6 6 6 7 7 7 7 8 8 8 8 8 8 9 9 9 9 8 8 7 7 7 7 6 6 5 5
4 4 4 4 4 4 4 4 4 4 4 5 5 5 5 5 5 5 6 6 6 6 7 7 7 8 8 8 8 8 8 8 8 8 7 7 7 6 6 6 5 5 4
Wind_Speed
5 5 6 7 7 7 7 7 6 6 6 6 6 6 5 5 4 4 4 4 5 4 3 4 4 3 3 3 3 4 4 4 3 2 2 3 3 3 2 2 3 4 5
4 5 5 6 7 8 8 8 7 7 6 7 6 6 5 5 5 4 4 4 5 4 4 4 4 3 4 4 3 4 4 4 4 3 3 2 2 3 3 2 2 2 3
4 5 5 6 7 8 8 8 8 8 7 7 7 6 6 6 5 5 5 5 4 4 4 5 4 4 5 4 4 4 3 3 4 4 3 3 2 3 3 2 2 2 2
4 5 5 6 6 7 8 8 8 8 8 8 7 7 7 6 6 6 5 5 4 4 4 5 5 4 4 4 4 4 4 4 4 4 3 3 3 3 3 3 3 2 2
5 5 6 7 7 7 7 7 8 8 9 9 8 8 7 7 6 6 6 5 5 4 4 4 3 2 2 2 3 3 4 4 4 4 4 3 4 4 3 3 3 2 2
6 6 6 7 7 7 8 8 8 8 9 9 9 9 8 7 4 5 7 6 6 5 4 4 3 4 4 4 2 2 3 4 4 4 4 4 4 4 3 3 3 3 2
7 7 7 7 8 8 8 8 9 9 9 9 10 10 10 9 7 8 9 8 7 6 5 5 3 3 5 4 6 6 4 3 4 5 5 4 4 4 5 5 4 3 1
8 8 8 8 8 9 9 9 10 10 9 9 10 11 10 9 9 10 10 10 8 7 7 6 6 5 4 4 5 5 4 4 4 5 4 3 3 3 4 4 3 3 2
9 10 10 9 9 10 9 9 9 9 10 10 10 11 11 11 11 12 11 9 9 9 8 7 7 6 5 4 6 5 5 4 3 3 4 4 6 4 2 4 5 4 3
10 11 11 11 10 11 11 11 9 9 10 10 10 11 12 12 10 13 14 10 10 9 8 8 6 6 6 6 8 7 6 6 5 6 5 5 5 5 3 4 4 4 3
11 12 11 11 11 11 11 10 10 9 10 11 11 11 12 12 11 13 14 11 10 9 8 8 7 9 7 7 7 6 5 5 6 6 5 5 5 4 4 3 2 2 2
12 12 12 12 11 10 10 11 10 10 10 11 11 11 10 11 11 12 15 15 12 11 9 8 7 11 10 8 7 4 4 5 6 6 6 5 5 4 4 4 4 3 3
13 12 12 13 11 11 11 11 10 9 9 10 10 10 9 9 9 11 14 16 15 12 9 5 6 11 11 9 8 7 8 7 7 7 6 5 4 5 5 5 5 5 5
14 13 12 12 12 12 10 10 9 9 9 10 10 10 10 9 9 8 9 11 12 12 10 8 9 9 8 6 9 9 8 7 7 7 6 6 5 5 5 5 5 5 4
15 13 13 12 12 12 11 10 11 11 10 11 11 10 10 11 10 8 9 10 10 11 11 9 9 9 10 10 9 9 8 8 7 7 7 7 7 6 6 5 4 5 4
14 13 11 11 11 11 12 12 11 12 13 15 15 15 13 12 9 9 11 11 9 11 12 11 11 11 12 11 11 10 9 9 8 8 8 8 8 7 7 6 5 5 5
15 14 12 12 11 11 12 12 12 11 12 14 15 15 16 14 12 12 12 11 11 13 13 13 12 12 12 12 11 11 10 10 9 9 8 8 8 7 7 7 6 5 5
15 14 13 11 11 12 12 12 12 12 12 11 10 12 13 14 13 12 11 10 10 13 14 14 13 13 12 12 11 11 10 10 10 9 9 9 8 8 8 7 7 7 6
14 12 12 12 12 12 12 12 12 13 12 12 11 9 9 10 10 11 12 11 12 13 13 13 13 12 12 12 12 11 11 11 11 10 10 9 9 8 8 8 7 7 6
13 15 15 13 12 12 12 12 12 12 12 12 11 10 8 7 7 7 10 11 12 12 13 13 13 13 13 12 12 12 12 12 12 11 10 10 9 9 9 9 8 8 7
13 14 16 14 13 13 13 13 13 12 12 12 11 11 10 10 9 10 10 11 11 12 13 12 12 13 13 12 12 13 14 12 12 12 11 10 10 9 8 8 8 7 7
13 14 13 13 13 13 13 14 13 13 13 13 12 11 11 11 10 10 10 11 11 11 11 11 11 11 12 13 13 14 14 13 13 12 12 11 10 10 9 9 8 8 7
14 15 15 14 14 14 14 14 13 13 13 13 12 11 11 11 10 11 11 10 10 10 10 10 10 10 11 12 13 14 14 14 14 14 13 12 11 10 10 10 10 10 9
15 16 16 15 15 14 14 14 13 13 13 13 13 12 12 11 11 12 11 9 9 9 9 10 10 13 15 13 12 13 13 13 14 14 16 14 13 11 11 10 10 11 9
15 16 16 15 15 15 15 14 14 14 13 13 13 12 12 12 11 11 11 9 10 10 11 11 10 11 16 17 15 14 15 17 16 15 14 13 13 13 12 12 10 11 10
16 16 15 15 15 15 14 14 14 14 13 13 12 12 12 12 11 10 10 9 9 9 10 10 12 14 16 16 17 17 20 21 20 18 15 13 13 12 13 11 13 11 11
Wind_Direction
272 263 253 251 251 250 251 254 256 263 265 270 273 277 281 284 282 278 281 269 269 265 249 246 239 243 236 227 224 231 234 233 230 200 168 157 161 168 164 162 163 171 159
290 279 268 263 254 253 253 252 253 256 261 266 269 268 273 275 273 276 278 273 269 270 261 255 241 225 233 234 225 228 225 225 223 206 180 171 172 164 160 157 157 158 153
310 290 281 272 266 263 263 260 257 256 256 257 259 262 266 267 266 264 270 269 265 265 263 258 248 234 231 221 223 223 223 219 214 207 188 173 180 171 164 157 153 141 144
316 301 291 289 282 273 270 268 262 258 256 256 255 254 255 257 259 257 258 261 260 260 259 255 249 244 245 231 223 222 216 215 210 207 194 184 177 175 178 171 161 143 139
316 306 299 295 295 284 275 267 265 261 258 256 255 253 249 250 253 258 257 255 254 252 251 250 246 260 328 287 261 232 217 218 212 207 197 192 184 181 183 176 163 153 133
319 312 310 302 297 290 281 273 268 262 260 256 253 250 248 244 225 243 258 252 249 244 243 243 228 205 201 209 250 300 289 241 223 212 207 203 197 184 172 177 170 173 160
324 321 316 309 300 293 285 278 269 261 257 255 251 248 246 237 204 214 234 251 248 246 242 237 231 216 207 204 189 198 220 250 262 243 222 211 202 188 182 186 187 183 155
330 325 320 311 303 297 291 281 274 269 261 254 253 248 244 238 208 213 220 236 242 239 236 236 229 223 207 216 207 198 199 196 210 226 221 212 198 179 189 192 170 155 144
331 325 321 314 306 297 290 282 276 272 266 257 253 250 244 237 209 211 219 233 236 235 231 231 229 224 167 203 222 208 198 184 132 96 48 75 74 77 159 174 175 185 185
329 322 319 315 307 299 291 287 280 270 265 263 257 251 247 245 215 206 219 230 233 231 226 223 215 227 175 194 218 213 208 193 177 163 161 159 163 150 186 200 192 196 188
323 318 315 313 308 301 296 290 283 273 267 263 259 252 248 245 225 207 212 228 230 229 224 219 208 181 186 197 229 226 208 201 192 187 179 175 174 167 166 171 173 202 197
319 314 312 311 309 305 300 293 285 277 268 263 260 256 250 242 235 215 208 223 240 231 228 223 203 169 183 194 208 196 166 196 200 193 190 185 180 168 156 148 135 114 86
317 313 311 309 308 306 303 296 287 279 271 266 261 258 254 247 231 213 211 217 223 230 230 213 176 167 179 191 192 186 191 203 202 198 193 185 174 161 149 140 134 120 104
316 313 311 310 309 309 305 297 289 283 276 271 267 262 258 252 242 224 218 217 212 220 224 191 174 177 197 197 183 192 205 207 205 200 190 174 162 161 163 160 162 162 153
314 311 310 309 307 304 300 295 287 280 278 276 273 269 263 256 248 237 232 226 218 212 204 202 200 197 200 202 200 197 198 194 194 195 186 177 174 171 169 168 175 181 186
313 311 308 306 303 301 300 298 283 271 271 266 266 266 269 269 266 241 238 242 226 197 199 208 206 205 205 202 199 194 194 195 193 190 187 183 182 179 172 169 177 185 184
310 309 305 303 301 299 299 299 298 291 270 260 259 257 258 264 258 245 233 228 211 192 209 216 212 208 206 203 200 196 194 190 188 188 187 185 182 179 175 174 178 183 182
308 306 302 298 296 296 295 295 294 294 295 291 274 256 251 251 248 243 225 210 215 208 219 219 214 209 205 201 197 195 189 184 185 186 186 184 182 181 180 181 182 182 179
307 305 302 298 293 292 292 293 292 291 289 289 288 279 255 250 243 235 212 220 222 218 220 218 214 208 203 199 195 191 188 186 185 184 184 183 183 183 182 182 176 166 180
303 300 298 295 292 291 291 292 292 290 288 286 283 283 280 268 259 244 229 230 228 224 220 218 212 208 201 196 191 189 188 187 186 187 183 181 181 182 181 179 175 176 184
304 302 298 293 290 291 291 291 290 287 285 285 282 280 274 268 258 250 240 235 232 228 221 218 211 205 200 194 190 190 189 188 186 184 181 179 177 177 176 177 177 177 175
303 301 299 295 292 291 291 290 287 284 283 283 283 279 267 260 258 252 245 240 234 231 225 216 210 203 196 193 191 190 190 187 184 182 179 176 174 173 172 173 173 172 172
300 300 298 295 293 289 287 286 284 282 283 282 281 278 272 265 260 255 249 244 237 229 223 214 208 201 197 196 194 191 190 187 182 178 175 172 171 172 172 173 173 173 175
298 298 298 296 293 291 288 286 283 281 281 280 278 275 270 266 262 258 252 242 235 227 218 212 207 203 195 190 190 190 188 179 174 175 172 170 169 169 170 171 173 175 176
297 297 296 295 293 291 289 287 285 282 280 279 277 275 273 267 261 258 252 241 232 224 216 210 205 202 196 189 185 182 165 158 161 163 166 168 168 167 168 169 170 171 172
295 296 295 295 293 290 288 285 283 282 280 279 276 273 272 268 261 257 251 240 229 220 214 208 204 199 192 188 182 169 156 154 153 153 161 164 165 167 167 168 169 172 172
Height
1508 1507 1507 1506 1505 1505 1505 1504 1503 1502 1501 1501 1500 1499 1498 1496 1495 1494 1493 1492 1491 1491 1490 1489 1489 1488 1489 1489 1489 1490 1491 1492 1493 1494 1494 1495 1496 1497 1498 1500 1502 1503 1505
1506 1505 1504 1503 1503 1502 1502 1501 1501 1500 1499 1498 1498 1497 1496 1495 1494 1493 1491 1490 1490 1489 1489 1488 1488 1487 1487 1488 1488 1489 1489 1490 1491 1492 1493 1493 1494 1496 1497 1498 1499 1501 1502
1503 1502 1502 1501 1500 1499 1499 1498 1498 1497 1496 1496 1495 1494 1494 1493 1492 1491 1490 1489 1489 1488 1487 1487 1487 1486 1486 1487 1487 1487 1488 1488 1489 1490 1491 1491 1493 1494 1495 1496 1497 1498 1500
1501 1500 1499 1499 1498 1496 1496 1495 1494 1494 1493 1493 1492 1492 1491 1490 1490 1489 1489 1488 1487 1486 1486 1485 1485 1485 1485 1485 1485 1486 1486 1487 1487 1488 1489 1490 1491 1492 1493 1494 1496 1497 1498
1500 1498 1497 1496 1495 1493 1492 1491 1490 1490 1489 1489 1489 1488 1488 1487 1487 1487 1486 1486 1485 1485 1484 1483 1483 1483 1482 1483 1484 1484 1484 1485 1485 1486 1487 1488 1489 1490 1491 1492 1494 1495 1496
1498 1496 1494 1493 1491 1490 1489 1488 1487 1486 1485 1485 1484 1484 1484 1483 1483 1483 1483 1483 1483 1483 1482 1481 1481 1480 1480 1480 1481 1481 1482 1483 1484 1485 1485 1486 1487 1488 1489 1491 1492 1494 1495
1495 1493 1491 1490 1488 1487 1485 1484 1482 1481 1481 1480 1479 1479 1479 1479 1479 1479 1479 1480 1480 1480 1480 1479 1479 1479 1478 1479 1479 1479 1480 1480 1481 1483 1484 1485 1486 1486 1488 1489 1491 1492 1493
1493 1491 1488 1486 1484 1483 1481 1480 1478 1478 1476 1475 1475 1474 1474 1474 1474 1474 1475 1476 1477 1477 1476 1476 1476 1477 1476 1477 1477 1478 1478 1479 1479 1480 1482 1483 1484 1485 1486 1488 1489 1490 1491
1490 1488 1485 1483 1480 1478 1477 1475 1474 1472 1471 1470 1469 1469 1469 1469 1469 1470 1471 1471 1472 1473 1473 1473 1473 1474 1473 1473 1475 1476 1476 1477 1477 1478 1479 1480 1481 1482 1484 1485 1487 1488 1489
1487 1485 1482 1480 1477 1474 1472 1470 1469 1467 1466 1465 1464 1463 1463 1463 1464 1464 1465 1467 1468 1468 1468 1469 1469 1470 1470 1470 1472 1473 1474 1475 1475 1476 1477 1478 1479 1480 1482 1483 1484 1486 1487
1484 1481 1478 1476 1473 1470 1467 1465 1463 1462 1460 1459 1458 1457 1457 1457 1458 1458 1459 1461 1462 1463 1464 1464 1464 1465 1466 1467 1468 1470 1471 1472 1473 1474 1475 1476 1477 1478 1479 1480 1481 1483 1485
1480 1477 1474 1471 1469 1466 1462 1460 1458 1456 1454 1453 1452 1451 1451 1451 1451 1451 1452 1454 1456 1458 1458 1459 1460 1460 1461 1463 1464 1465 1467 1469 1470 1472 1473 1474 1475 1476 1477 1478 1479 1480 1481
1477 1473 1470 1467 1464 1461 1458 1455 1453 1451 1449 1448 1447 1445 1445 1445 1444 1445 1446 1447 1449 1451 1452 1453 1454 1455 1457 1458 1460 1461 1463 1465 1467 1468 1469 1470 1472 1473 1474 1475 1476 1478 1479
1473 1469 1466 1463 1459 1456 1453 1451 1448 1446 1444 1442 1441 1440 1439 1438 1438 1438 1438 1440 1442 1444 1446 1447 1448 1450 1452 1453 1455 1457 1458 1461 1462 1464 1465 1466 1468 1469 1471 1472 1474 1475 1476
1468 1465 1461 1458 1454 1451 1448 1445 1442 1440 1439 1436 1435 1434 1433 1432 1432 1432 1432 1433 1434 1436 1439 1440 1442 1443 1445 1447 1449 1451 1453 1455 1457 1459 1461 1462 1464 1466 1467 1469 1471 1472 1474
1464 1460 1456 1453 1449 1446 1442 1439 1436 1434 1431 1429 1427 1426 1425 1424 1424 1424 1425 1426 1427 1429 1431 1433 1434 1436 1438 1440 1443 1445 1447 1449 1452 1454 1456 1458 1460 1462 1464 1465 1467 1469 1471
1459 1455 1451 1448 1444 1440 1437 1433 1429 1425 1423 1421 1419 1418 1417 1416 1415 1415 1416 1417 1419 1421 1423 1424 1426 1428 1431 1433 1436 1438 1440 1443 1446 1448 1451 1453 1456 1458 1460 1461 1463 1465 1467
1454 1450 1446 1442 1439 1435 1432 1428 1424 1420 1416 1413 1412 1410 1408 1407 1407 1407 1408 1409 1409 1411 1413 1416 1418 1420 1423 1426 1428 1431 1434 1437 1440 1443 1446 1448 1451 1453 1455 1457 1459 1460 1462
1448 1444 1440 1437 1433 1430 1426 1422 1418 1415 1411 1408 1405 1403 1401 1400 1399 1398 1399 1400 1400 1401 1404 1407 1409 1412 1415 1418 1421 1424 1427 1430 1433 1437 1440 1442 1445 1448 1450 1452 1454 1456 1458
1442 1438 1434 1430 1427 1423 1420 1416 1413 1409 1406 1402 1399 1397 1395 1393 1391 1390 1390 1391 1393 1394 1396 1398 1401 1403 1407 1410 1413 1417 1420 1423 1427 1430 1433 1436 1439 1442 1445 1447 1449 1451 1453
1435 1431 1427 1424 1420 1417 1414 1410 1406 1403 1399 1396 1393 1391 1389 1387 1385 1384 1383 1383 1384 1386 1388 1390 1392 1395 1398 1402 1405 1409 1413 1417 1420 1424 1427 1430 1433 1436 1439 1442 1444 1447 1449
1429 1425 1421 1417 1413 1410 1406 1403 1399 1396 1392 1389 1386 1384 1382 1380 1378 1377 1376 1376 1377 1378 1380 1382 1384 1386 1389 1393 1397 1401 1405 1409 1413 1416 1420 1424 1427 1430 1434 1436 1439 1441 1444
1422 1418 1414 1410 1406 1402 1398 1395 1392 1389 1385 1382 1379 1377 1374 1373 1371 1370 1369 1369 1369 1370 1371 1373 1376 1378 1382 1386 1389 1393 1397 1401 1405 1409 1413 1417 1421 1425 1428 1431 1434 1436 1439
1416 1411 1407 1402 1398 1394 1390 1387 1384 1380 1377 1374 1372 1369 1367 1365 1363 1362 1361 1361 1361 1362 1363 1365 1368 1370 1374 1378 1381 1386 1390 1394 1399 1403 1407 1411 1415 1419 1422 1425 1428 1431 1434
1408 1404 1399 1395 1390 1386 1382 1379 1375 1372 1369 1366 1363 1361 1359 1357 1355 1354 1353 1353 1353 1354 1355 1357 1360 1363 1367 1370 1374 1378 1382 1387 1392 1396 1401 1406 1410 1413 1417 1420 1423 1426 1429
1400 1396 1391 1387 1382 1378 1374 1370 1367 1363 1360 1357 1354 1352 1350 1348 1346 1346 1345 1345 1345 1346 1347 1349 1352 1355 1359 1363 1367 1372 1376 1381 1386 1391 1396 1400 1404 1408 1412 1415 1419 1422 1425